Time,TemperatureF,DewpointF,PressureIn,WindDirection,WindDirectionDegrees,WindSpeedMPH,WindSpeedGustMPH,Humidity,HourlyPrecipIn,Conditions,Clouds,dailyrainin,SoftwareType,DateUTC
2013-06-17 00:00:00,55.8,51.6,30.13,SE,146,5.0,13.0,86,0.00,,,0.00,meteohub,2013-06-17 07:00:00,
2013-06-17 00:05:00,55.8,51.6,30.13,SSE,157,11.0,12.0,86,0.00,,,0.00,meteohub,2013-06-17 07:05:00,
2013-06-17 00:10:00,55.8,52.0,30.13,South,184,10.0,14.0,87,0.00,,,0.00,meteohub,2013-06-17 07:10:00,
2013-06-17 00:15:00,55.8,52.0,30.13,SE,145,6.0,14.0,87,0.00,,,0.00,meteohub,2013-06-17 07:15:00,
2013-06-17 00:20:00,55.8,52.0,30.13,SSE,155,5.0,14.0,87,0.00,,,0.00,meteohub,2013-06-17 07:20:00,
2013-06-17 00:25:00,55.8,52.3,30.13,SSE,152,9.0,13.0,88,0.00,,,0.00,meteohub,2013-06-17 07:25:00,
2013-06-17 00:30:00,55.8,52.3,30.13,ESE,114,4.0,13.0,88,0.00,,,0.00,meteohub,2013-06-17 07:30:00,
2013-06-17 00:35:00,55.8,52.3,30.13,SE,145,10.0,13.0,88,0.00,,,0.00,meteohub,2013-06-17 07:35:00,
2013-06-17 00:40:00,55.8,52.3,30.13,SE,124,6.0,12.0,88,0.00,,,0.00,meteohub,2013-06-17 07:40:00,
2013-06-17 00:45:00,55.8,52.3,30.13,SE,136,9.0,11.0,88,0.00,,,0.00,meteohub,2013-06-17 07:45:00,
2013-06-17 00:50:00,55.8,52.0,30.13,ESE,113,7.0,11.0,87,0.00,,,0.00,meteohub,2013-06-17 07:50:00,
2013-06-17 00:55:00,55.6,52.2,30.13,SE,126,3.0,11.0,88,0.00,,,0.00,meteohub,2013-06-17 07:55:00,
2013-06-17 01:00:00,55.6,52.2,30.13,ESE,120,8.0,11.0,88,0.00,,,0.00,meteohub,2013-06-17 08:00:00,
2013-06-17 01:05:00,55.4,52.0,30.13,SE,125,5.0,10.0,88,0.00,,,0.00,meteohub,2013-06-17 08:05:00,
2013-06-17 01:10:00,55.6,52.2,30.13,SE,135,3.0,10.0,88,0.00,,,0.00,meteohub,2013-06-17 08:10:00,
2013-06-17 01:15:00,55.6,52.2,30.13,SE,124,5.0,10.0,88,0.00,,,0.00,meteohub,2013-06-17 08:15:00,
2013-06-17 01:20:00,55.6,52.2,30.13,SE,129,2.0,8.0,88,0.00,,,0.00,meteohub,2013-06-17 08:20:00,
2013-06-17 01:25:00,55.8,52.3,30.13,SSE,163,0.0,7.0,88,0.00,,,0.00,meteohub,2013-06-17 08:25:00,
2013-06-17 01:30:00,56.1,52.3,30.13,SSE,162,2.0,7.0,87,0.00,,,0.00,meteohub,2013-06-17 08:30:00,
2013-06-17 01:35:00,56.3,52.5,30.13,SSE,162,2.0,6.0,87,0.00,,,0.00,meteohub,2013-06-17 08:35:00,
2013-06-17 01:40:00,56.3,52.2,30.13,SSE,162,2.0,6.0,86,0.00,,,0.00,meteohub,2013-06-17 08:40:00,
2013-06-17 01:45:00,55.9,51.8,30.13,SE,129,4.0,5.0,86,0.00,,,0.00,meteohub,2013-06-17 08:45:00,
2013-06-17 01:50:00,55.8,51.6,30.13,SE,129,0.0,7.0,86,0.00,,,0.00,meteohub,2013-06-17 08:50:00,
2013-06-17 01:55:00,55.8,52.0,30.12,ESE,122,3.0,7.0,87,0.00,,,0.00,meteohub,2013-06-17 08:55:00,
2013-06-17 02:00:00,55.6,51.8,30.12,SE,127,4.0,5.0,87,0.00,,,0.00,meteohub,2013-06-17 09:00:00,
2013-06-17 02:05:00,55.6,51.8,30.12,SE,131,7.0,7.0,87,0.00,,,0.00,meteohub,2013-06-17 09:05:00,
2013-06-17 02:10:00,55.6,52.2,30.12,SE,127,4.0,7.0,88,0.00,,,0.00,meteohub,2013-06-17 09:10:00,
2013-06-17 02:15:00,55.6,52.2,30.12,SE,126,3.0,7.0,88,0.00,,,0.00,meteohub,2013-06-17 09:15:00,
2013-06-17 02:20:00,55.6,52.2,30.12,SE,133,4.0,7.0,88,0.00,,,0.00,meteohub,2013-06-17 09:20:00,
2013-06-17 02:25:00,55.4,52.0,30.12,SE,124,5.0,7.0,88,0.00,,,0.00,meteohub,2013-06-17 09:25:00,
2013-06-17 02:31:00,55.4,52.0,30.12,SE,133,5.0,9.0,88,0.00,,,0.00,meteohub,2013-06-17 09:31:00,
2013-06-17 02:36:00,55.2,51.8,30.12,SE,125,2.0,9.0,88,0.00,,,0.00,meteohub,2013-06-17 09:36:00,
2013-06-17 02:41:00,55.2,51.8,30.12,SE,127,6.0,9.0,88,0.00,,,0.00,meteohub,2013-06-17 09:41:00,
2013-06-17 02:46:00,55.4,52.0,30.12,SE,127,3.0,8.0,88,0.00,,,0.00,meteohub,2013-06-17 09:46:00,
2013-06-17 02:51:00,55.6,52.2,30.12,SSE,157,5.0,8.0,88,0.00,,,0.00,meteohub,2013-06-17 09:51:00,
2013-06-17 02:56:00,55.6,51.8,30.12,SSE,159,3.0,8.0,87,0.00,,,0.00,meteohub,2013-06-17 09:56:00,
2013-06-17 03:01:00,55.6,51.8,30.12,SSE,156,6.0,7.0,87,0.00,,,0.00,meteohub,2013-06-17 10:01:00,
2013-06-17 03:06:00,55.8,51.6,30.12,SSE,158,6.0,8.0,86,0.00,,,0.00,meteohub,2013-06-17 10:06:00,
2013-06-17 03:11:00,55.8,52.0,30.12,South,181,4.0,10.0,87,0.00,,,0.00,meteohub,2013-06-17 10:11:00,
2013-06-17 03:16:00,55.8,51.6,30.12,SSE,166,6.0,10.0,86,0.00,,,0.00,meteohub,2013-06-17 10:16:00,
2013-06-17 03:21:00,55.8,52.0,30.12,SSE,154,5.0,11.0,87,0.00,,,0.00,meteohub,2013-06-17 10:21:00,
2013-06-17 03:26:00,55.6,52.2,30.12,SSE,150,7.0,11.0,88,0.00,,,0.00,meteohub,2013-06-17 10:26:00,
2013-06-17 03:31:00,55.6,52.2,30.12,SSE,162,4.0,11.0,88,0.00,,,0.00,meteohub,2013-06-17 10:31:00,
2013-06-17 03:36:00,55.4,52.0,30.12,SSE,155,5.0,10.0,88,0.00,,,0.00,meteohub,2013-06-17 10:36:00,
2013-06-17 03:41:00,55.4,52.0,30.12,SE,137,1.0,9.0,88,0.00,,,0.00,meteohub,2013-06-17 10:41:00,
2013-06-17 03:46:00,55.4,52.0,30.12,SE,135,3.0,9.0,88,0.00,,,0.00,meteohub,2013-06-17 10:46:00,
2013-06-17 03:51:00,55.4,52.0,30.12,SSE,147,5.0,9.0,88,0.00,,,0.00,meteohub,2013-06-17 10:51:00,
2013-06-17 03:56:00,55.4,52.0,30.12,SSE,156,3.0,9.0,88,0.00,,,0.00,meteohub,2013-06-17 10:56:00,
2013-06-17 04:01:00,55.2,51.8,30.12,SE,142,5.0,8.0,88,0.00,,,0.00,meteohub,2013-06-17 11:01:00,
2013-06-17 04:06:00,55.2,51.8,30.12,SSE,156,5.0,8.0,88,0.00,,,0.00,meteohub,2013-06-17 11:06:00,
2013-06-17 04:11:00,55.2,51.8,30.12,SE,141,4.0,8.0,88,0.00,,,0.00,meteohub,2013-06-17 11:11:00,
2013-06-17 04:16:00,55.2,51.8,30.12,SE,141,4.0,8.0,88,0.00,,,0.00,meteohub,2013-06-17 11:16:00,
2013-06-17 04:21:00,55.0,51.8,30.12,SE,131,3.0,8.0,89,0.00,,,0.00,meteohub,2013-06-17 11:21:00,
2013-06-17 04:26:00,55.0,51.8,30.12,SSE,164,4.0,8.0,89,0.00,,,0.00,meteohub,2013-06-17 11:26:00,
2013-06-17 04:31:00,55.0,51.8,30.12,SE,133,7.0,8.0,89,0.00,,,0.00,meteohub,2013-06-17 11:31:00,
2013-06-17 04:36:00,54.9,52.0,30.12,SE,144,5.0,13.0,90,0.00,,,0.00,meteohub,2013-06-17 11:36:00,
2013-06-17 04:41:00,54.7,51.8,30.12,SSE,156,6.0,13.0,90,0.00,,,0.00,meteohub,2013-06-17 11:41:00,
2013-06-17 04:46:00,54.5,52.0,30.12,North,359,4.0,13.0,91,0.00,,,0.00,meteohub,2013-06-17 11:46:00,
2013-06-17 04:51:00,54.5,52.0,30.12,SSE,162,5.0,13.0,91,0.00,,,0.00,meteohub,2013-06-17 11:51:00,
2013-06-17 04:56:00,54.5,52.0,30.12,South,172,8.0,13.0,91,0.00,,,0.00,meteohub,2013-06-17 11:56:00,
2013-06-17 05:01:00,54.3,51.8,30.12,SSE,165,9.0,12.0,91,0.00,,,0.00,meteohub,2013-06-17 12:01:00,
2013-06-17 05:06:00,54.3,52.0,30.12,SSE,168,9.0,14.0,92,0.00,,,0.00,meteohub,2013-06-17 12:06:00,
2013-06-17 05:12:00,54.1,51.8,30.12,SSE,154,12.0,14.0,92,0.00,,,0.00,meteohub,2013-06-17 12:12:00,
2013-06-17 05:17:00,54.0,51.6,30.12,SSE,155,14.0,14.0,92,0.00,,,0.00,meteohub,2013-06-17 12:17:00,
2013-06-17 05:22:00,53.8,51.4,30.12,SSE,156,6.0,15.0,92,0.00,,,0.00,meteohub,2013-06-17 12:22:00,
2013-06-17 05:27:00,53.8,51.4,30.12,South,179,8.0,15.0,92,0.00,,,0.00,meteohub,2013-06-17 12:27:00,
2013-06-17 05:32:00,53.8,51.4,30.12,South,173,9.0,15.0,92,0.00,,,0.00,meteohub,2013-06-17 12:32:00,
2013-06-17 05:37:00,53.4,51.1,30.12,SSE,165,7.0,14.0,92,0.00,,,0.00,meteohub,2013-06-17 12:37:00,
2013-06-17 05:42:00,53.4,51.4,30.12,North,359,9.0,14.0,93,0.00,,,0.00,meteohub,2013-06-17 12:42:00,
2013-06-17 05:47:00,53.2,51.3,30.12,SSE,152,10.0,15.0,93,0.00,,,0.00,meteohub,2013-06-17 12:47:00,
2013-06-17 05:52:00,53.1,51.1,30.12,South,176,12.0,15.0,93,0.00,,,0.00,meteohub,2013-06-17 12:52:00,
2013-06-17 05:57:00,53.1,51.1,30.12,SSE,147,9.0,16.0,93,0.00,,,0.00,meteohub,2013-06-17 12:57:00,
2013-06-17 06:02:00,52.9,50.9,30.13,South,184,9.0,17.0,93,0.00,,,0.00,meteohub,2013-06-17 13:02:00,
2013-06-17 06:07:00,52.7,51.1,30.12,South,181,10.0,17.0,94,0.00,,,0.00,meteohub,2013-06-17 13:07:00,
2013-06-17 06:12:00,52.5,50.9,30.13,SSE,160,10.0,17.0,94,0.00,,,0.00,meteohub,2013-06-17 13:12:00,
2013-06-17 06:17:00,52.5,50.9,30.13,South,170,15.0,17.0,94,0.00,,,0.00,meteohub,2013-06-17 13:17:00,
2013-06-17 06:22:00,52.5,50.9,30.13,South,177,10.0,17.0,94,0.00,,,0.00,meteohub,2013-06-17 13:22:00,
2013-06-17 06:27:00,52.5,50.9,30.13,SSE,167,13.0,15.0,94,0.00,,,0.00,meteohub,2013-06-17 13:27:00,
2013-06-17 06:32:00,52.3,50.7,30.13,South,187,11.0,15.0,94,0.00,,,0.00,meteohub,2013-06-17 13:32:00,
2013-06-17 06:37:00,52.3,50.7,30.13,South,181,9.0,15.0,94,0.00,,,0.00,meteohub,2013-06-17 13:37:00,
2013-06-17 06:42:00,52.3,50.7,30.13,SSE,165,7.0,15.0,94,0.00,,,0.00,meteohub,2013-06-17 13:42:00,
2013-06-17 06:47:00,52.3,50.7,30.13,South,181,11.0,15.0,94,0.00,,,0.00,meteohub,2013-06-17 13:47:00,
2013-06-17 06:52:00,52.2,50.5,30.13,SSW,197,9.0,15.0,94,0.00,,,0.00,meteohub,2013-06-17 13:52:00,
2013-06-17 06:57:00,52.0,50.4,30.13,SSW,194,7.0,15.0,94,0.00,,,0.00,meteohub,2013-06-17 13:57:00,
2013-06-17 07:02:00,52.2,50.5,30.13,SSW,199,6.0,16.0,94,0.00,,,0.00,meteohub,2013-06-17 14:02:00,
2013-06-17 07:07:00,52.2,50.5,30.13,South,190,6.0,16.0,94,0.00,,,0.00,meteohub,2013-06-17 14:07:00,
2013-06-17 07:12:00,52.3,50.9,30.13,South,188,6.0,16.0,95,0.00,,,0.00,meteohub,2013-06-17 14:12:00,
2013-06-17 07:17:00,52.5,50.9,30.13,SSW,199,9.0,14.0,94,0.00,,,0.00,meteohub,2013-06-17 14:17:00,
2013-06-17 07:22:00,52.9,51.3,30.13,SSW,199,6.0,14.0,94,0.00,,,0.00,meteohub,2013-06-17 14:22:00,
2013-06-17 07:27:00,53.1,51.4,30.13,SSW,192,8.0,10.0,94,0.00,,,0.00,meteohub,2013-06-17 14:27:00,
2013-06-17 07:32:00,53.1,51.4,30.13,SSW,194,6.0,12.0,94,0.00,,,0.00,meteohub,2013-06-17 14:32:00,
2013-06-17 07:37:00,53.2,51.3,30.13,South,173,5.0,12.0,93,0.00,,,0.00,meteohub,2013-06-17 14:37:00,
2013-06-17 07:42:00,53.8,51.8,30.13,South,177,5.0,12.0,93,0.00,,,0.00,meteohub,2013-06-17 14:42:00,
2013-06-17 07:47:00,54.1,52.2,30.13,South,177,3.0,12.0,93,0.00,,,0.00,meteohub,2013-06-17 14:47:00,
2013-06-17 07:53:00,54.5,52.2,30.13,South,170,7.0,12.0,92,0.00,,,0.00,meteohub,2013-06-17 14:53:00,
2013-06-17 07:58:00,54.7,52.2,30.14,SSE,168,6.0,12.0,91,0.00,,,0.00,meteohub,2013-06-17 14:58:00,
2013-06-17 08:03:00,54.7,52.2,30.13,South,190,10.0,11.0,91,0.00,,,0.00,meteohub,2013-06-17 15:03:00,
2013-06-17 08:08:00,54.7,52.2,30.14,SSW,195,7.0,12.0,91,0.00,,,0.00,meteohub,2013-06-17 15:08:00,
2013-06-17 08:13:00,54.9,52.0,30.14,SSW,205,6.0,12.0,90,0.00,,,0.00,meteohub,2013-06-17 15:13:00,
2013-06-17 08:18:00,55.0,51.8,30.14,South,177,6.0,12.0,89,0.00,,,0.00,meteohub,2013-06-17 15:18:00,
2013-06-17 08:23:00,55.2,51.8,30.14,SSE,166,8.0,12.0,88,0.00,,,0.00,meteohub,2013-06-17 15:23:00,
2013-06-17 08:28:00,55.6,52.2,30.14,SSE,162,6.0,12.0,88,0.00,,,0.00,meteohub,2013-06-17 15:28:00,
2013-06-17 08:33:00,55.9,52.2,30.14,SSE,166,7.0,12.0,87,0.00,,,0.00,meteohub,2013-06-17 15:33:00,
2013-06-17 08:38:00,56.1,52.3,30.14,South,183,7.0,12.0,87,0.00,,,0.00,meteohub,2013-06-17 15:38:00,
2013-06-17 08:43:00,56.8,52.7,30.14,South,185,7.0,12.0,86,0.00,,,0.00,meteohub,2013-06-17 15:43:00,
2013-06-17 08:48:00,57.2,52.3,30.14,SSE,162,9.0,12.0,84,0.00,,,0.00,meteohub,2013-06-17 15:48:00,
2013-06-17 08:53:00,57.2,52.3,30.14,SSE,166,8.0,12.0,84,0.00,,,0.00,meteohub,2013-06-17 15:53:00,
2013-06-17 08:58:00,57.6,52.7,30.14,SSE,160,7.0,12.0,84,0.00,,,0.00,meteohub,2013-06-17 15:58:00,
2013-06-17 09:03:00,57.7,52.7,30.14,South,187,8.0,12.0,83,0.00,,,0.00,meteohub,2013-06-17 16:03:00,
2013-06-17 09:08:00,57.7,52.3,30.14,South,169,8.0,11.0,82,0.00,,,0.00,meteohub,2013-06-17 16:08:00,
2013-06-17 09:13:00,57.9,52.7,30.14,South,171,7.0,12.0,83,0.00,,,0.00,meteohub,2013-06-17 16:13:00,
2013-06-17 09:18:00,58.3,52.5,30.13,SSW,209,7.0,13.0,81,0.00,,,0.00,meteohub,2013-06-17 16:18:00,
2013-06-17 09:23:00,58.5,52.7,30.13,SSE,158,9.0,13.0,81,0.00,,,0.00,meteohub,2013-06-17 16:23:00,
2013-06-17 09:28:00,58.6,52.9,30.13,South,177,8.0,12.0,81,0.00,,,0.00,meteohub,2013-06-17 16:28:00,
2013-06-17 09:33:00,59.2,53.1,30.13,SSW,195,7.0,14.0,80,0.00,,,0.00,meteohub,2013-06-17 16:33:00,
2013-06-17 09:38:00,59.4,53.2,30.13,SSW,194,5.0,14.0,80,0.00,,,0.00,meteohub,2013-06-17 16:38:00,
2013-06-17 09:43:00,59.4,53.6,30.13,SSW,201,7.0,14.0,81,0.00,,,0.00,meteohub,2013-06-17 16:43:00,
2013-06-17 09:48:00,59.5,53.4,30.13,South,174,7.0,13.0,80,0.00,,,0.00,meteohub,2013-06-17 16:48:00,
2013-06-17 09:53:00,59.5,53.4,30.13,SSW,199,8.0,15.0,80,0.00,,,0.00,meteohub,2013-06-17 16:53:00,
2013-06-17 09:58:00,60.3,53.8,30.12,South,188,6.0,15.0,79,0.00,,,0.00,meteohub,2013-06-17 16:58:00,
2013-06-17 10:03:00,59.9,53.1,30.12,South,190,7.0,15.0,78,0.00,,,0.00,meteohub,2013-06-17 17:03:00,
2013-06-17 10:08:00,60.3,53.8,30.12,South,170,12.0,15.0,79,0.00,,,0.00,meteohub,2013-06-17 17:08:00,
2013-06-17 10:13:00,60.4,53.6,30.12,SSW,213,10.0,16.0,78,0.00,,,0.00,meteohub,2013-06-17 17:13:00,
2013-06-17 10:18:00,60.8,53.6,30.12,SW,224,12.0,16.0,77,0.00,,,0.00,meteohub,2013-06-17 17:18:00,
2013-06-17 10:23:00,60.6,53.1,30.12,SSW,197,9.0,16.0,76,0.00,,,0.00,meteohub,2013-06-17 17:23:00,
2013-06-17 10:28:00,61.2,52.9,30.12,SSW,200,7.0,16.0,74,0.00,,,0.00,meteohub,2013-06-17 17:28:00,
2013-06-17 10:34:00,61.2,52.5,30.12,South,188,10.0,16.0,73,0.00,,,0.00,meteohub,2013-06-17 17:34:00,
2013-06-17 10:39:00,60.8,52.5,30.12,SSW,207,7.0,16.0,74,0.00,,,0.00,meteohub,2013-06-17 17:39:00,
2013-06-17 10:44:00,61.2,53.2,30.12,South,183,8.0,16.0,75,0.00,,,0.00,meteohub,2013-06-17 17:44:00,
2013-06-17 10:49:00,61.5,54.0,30.12,SSW,208,8.0,16.0,76,0.00,,,0.00,meteohub,2013-06-17 17:49:00,
2013-06-17 10:54:00,61.5,54.3,30.12,SSE,151,8.0,16.0,77,0.00,,,0.00,meteohub,2013-06-17 17:54:00,
2013-06-17 10:59:00,61.0,54.5,30.13,SSW,209,13.0,16.0,79,0.00,,,0.00,meteohub,2013-06-17 17:59:00,
2013-06-17 11:04:00,60.3,54.1,30.13,SSW,212,12.0,15.0,80,0.00,,,0.00,meteohub,2013-06-17 18:04:00,
2013-06-17 11:09:00,60.1,54.5,30.13,SSW,195,8.0,15.0,82,0.00,,,0.00,meteohub,2013-06-17 18:09:00,
2013-06-17 11:14:00,60.8,54.7,30.13,SSW,212,7.0,15.0,80,0.00,,,0.00,meteohub,2013-06-17 18:14:00,
2013-06-17 11:19:00,61.2,54.9,30.13,South,185,8.0,15.0,80,0.00,,,0.00,meteohub,2013-06-17 18:19:00,
2013-06-17 11:24:00,61.5,54.9,30.13,South,179,8.0,14.0,79,0.00,,,0.00,meteohub,2013-06-17 18:24:00,
2013-06-17 11:29:00,61.9,55.2,30.13,SSW,210,6.0,14.0,79,0.00,,,0.00,meteohub,2013-06-17 18:29:00,
2013-06-17 11:34:00,61.5,54.9,30.13,SSW,199,11.0,15.0,79,0.00,,,0.00,meteohub,2013-06-17 18:34:00,
2013-06-17 11:39:00,61.7,55.4,30.13,South,191,6.0,15.0,80,0.00,,,0.00,meteohub,2013-06-17 18:39:00,
2013-06-17 11:44:00,62.1,55.4,30.14,SSE,159,9.0,15.0,79,0.00,,,0.00,meteohub,2013-06-17 18:44:00,
2013-06-17 11:49:00,62.2,55.6,30.13,SSE,154,10.0,15.0,79,0.00,,,0.00,meteohub,2013-06-17 18:49:00,
2013-06-17 11:54:00,62.1,55.4,30.13,South,189,8.0,15.0,79,0.00,,,0.00,meteohub,2013-06-17 18:54:00,
2013-06-17 11:59:00,62.6,55.9,30.13,SSE,160,11.0,15.0,79,0.00,,,0.00,meteohub,2013-06-17 18:59:00,
2013-06-17 12:04:00,63.0,55.9,30.13,South,170,9.0,15.0,78,0.00,,,0.00,meteohub,2013-06-17 19:04:00,
2013-06-17 12:09:00,63.1,56.1,30.13,South,170,5.0,15.0,78,0.00,,,0.00,meteohub,2013-06-17 19:09:00,
2013-06-17 12:14:00,64.4,57.0,30.13,South,174,11.0,14.0,77,0.00,,,0.00,meteohub,2013-06-17 19:14:00,
2013-06-17 12:19:00,64.8,56.7,30.13,SSE,158,10.0,14.0,75,0.00,,,0.00,meteohub,2013-06-17 19:19:00,
2013-06-17 12:24:00,64.8,56.7,30.13,South,170,11.0,14.0,75,0.00,,,0.00,meteohub,2013-06-17 19:24:00,
2013-06-17 12:29:00,64.6,56.5,30.13,SSW,199,7.0,13.0,75,0.00,,,0.00,meteohub,2013-06-17 19:29:00,
2013-06-17 12:34:00,64.9,56.8,30.12,South,176,4.0,13.0,75,0.00,,,0.00,meteohub,2013-06-17 19:34:00,
2013-06-17 12:39:00,66.4,57.0,30.12,South,190,6.0,14.0,72,0.00,,,0.00,meteohub,2013-06-17 19:39:00,
2013-06-17 12:44:00,66.9,56.8,30.12,South,177,6.0,14.0,70,0.00,,,0.00,meteohub,2013-06-17 19:44:00,
2013-06-17 12:49:00,67.6,56.3,30.12,South,189,6.0,14.0,67,0.00,,,0.00,meteohub,2013-06-17 19:49:00,
2013-06-17 12:54:00,68.0,57.4,30.12,SSW,206,12.0,12.0,69,0.00,,,0.00,meteohub,2013-06-17 19:54:00,
2013-06-17 13:00:00,68.2,56.8,30.12,SE,143,5.0,12.0,67,0.00,,,0.00,meteohub,2013-06-17 20:00:00,
2013-06-17 13:05:00,68.2,57.6,30.12,SE,133,3.0,13.0,69,0.00,,,0.00,meteohub,2013-06-17 20:05:00,
2013-06-17 13:10:00,68.7,57.4,30.12,South,171,8.0,13.0,67,0.00,,,0.00,meteohub,2013-06-17 20:10:00,
2013-06-17 13:15:00,68.4,57.7,30.12,South,181,7.0,13.0,69,0.00,,,0.00,meteohub,2013-06-17 20:15:00,
2013-06-17 13:20:00,69.1,57.2,30.12,SSE,160,8.0,12.0,66,0.00,,,0.00,meteohub,2013-06-17 20:20:00,
2013-06-17 13:25:00,69.6,56.8,30.12,West,274,12.0,12.0,64,0.00,,,0.00,meteohub,2013-06-17 20:25:00,
2013-06-17 13:30:00,72.1,55.6,30.12,WNW,299,6.0,14.0,56,0.00,,,0.00,meteohub,2013-06-17 20:30:00,
2013-06-17 13:35:00,73.4,57.2,30.12,West,266,11.0,17.0,57,0.00,,,0.00,meteohub,2013-06-17 20:35:00,
2013-06-17 13:40:00,73.2,57.6,30.11,ESE,121,7.0,17.0,58,0.00,,,0.00,meteohub,2013-06-17 20:40:00,
2013-06-17 13:45:00,72.0,57.4,30.11,WSW,251,2.0,17.0,60,0.00,,,0.00,meteohub,2013-06-17 20:45:00,
2013-06-17 13:50:00,72.7,57.6,30.11,NNW,328,4.0,17.0,59,0.00,,,0.00,meteohub,2013-06-17 20:50:00,
2013-06-17 13:55:00,73.9,57.2,30.11,SW,228,9.0,13.0,56,0.00,,,0.00,meteohub,2013-06-17 20:55:00,
2013-06-17 14:00:00,72.9,57.2,30.11,SW,232,9.0,17.0,58,0.00,,,0.00,meteohub,2013-06-17 21:00:00,
2013-06-17 14:05:00,72.3,55.8,30.11,West,272,17.0,17.0,56,0.00,,,0.00,meteohub,2013-06-17 21:05:00,
2013-06-17 14:10:00,73.6,57.4,30.11,SW,233,11.0,-999.0,57,0.00,,,0.00,meteohub,2013-06-17 21:10:00,
2013-06-17 14:15:00,72.7,56.5,30.11,SW,233,11.0,18.0,57,0.00,,,0.00,meteohub,2013-06-17 21:15:00,
2013-06-17 14:20:00,73.0,56.5,30.11,WNW,288,13.0,19.0,56,0.00,,,0.00,meteohub,2013-06-17 21:20:00,
2013-06-17 14:25:00,73.2,56.1,30.11,WNW,289,13.0,19.0,55,0.00,,,0.00,meteohub,2013-06-17 21:25:00,
2013-06-17 14:30:00,73.9,56.3,30.11,NNW,331,6.0,17.0,54,0.00,,,0.00,meteohub,2013-06-17 21:30:00,
2013-06-17 14:35:00,73.8,55.6,30.11,WNW,287,11.0,17.0,53,0.00,,,0.00,meteohub,2013-06-17 21:35:00,
2013-06-17 14:40:00,73.6,55.4,30.11,WNW,282,13.0,18.0,53,0.00,,,0.00,meteohub,2013-06-17 21:40:00,
2013-06-17 14:45:00,73.0,55.4,30.11,West,276,16.0,18.0,54,0.00,,,0.00,meteohub,2013-06-17 21:45:00,
2013-06-17 14:50:00,73.2,56.7,30.11,WSW,253,5.0,20.0,56,0.00,,,0.00,meteohub,2013-06-17 21:50:00,
2013-06-17 14:55:00,73.6,55.9,30.11,WNW,289,14.0,20.0,54,0.00,,,0.00,meteohub,2013-06-17 21:55:00,
2013-06-17 15:00:00,72.9,55.8,30.11,WNW,291,13.0,20.0,55,0.00,,,0.00,meteohub,2013-06-17 22:00:00,
2013-06-17 15:05:00,73.2,56.1,30.11,NW,315,4.0,16.0,55,0.00,,,0.00,meteohub,2013-06-17 22:05:00,
2013-06-17 15:10:00,73.6,57.9,30.11,SSW,194,7.0,16.0,58,0.00,,,0.00,meteohub,2013-06-17 22:10:00,
2013-06-17 15:15:00,73.6,55.9,30.11,West,281,13.0,16.0,54,0.00,,,0.00,meteohub,2013-06-17 22:15:00,
2013-06-17 15:20:00,73.4,55.8,30.11,West,267,16.0,18.0,54,0.00,,,0.00,meteohub,2013-06-17 22:20:00,
2013-06-17 15:25:00,73.0,55.9,30.11,WSW,256,12.0,18.0,55,0.00,,,0.00,meteohub,2013-06-17 22:25:00,
2013-06-17 15:30:00,74.1,56.5,30.11,West,260,8.0,18.0,54,0.00,,,0.00,meteohub,2013-06-17 22:30:00,
2013-06-17 15:35:00,72.9,55.2,30.10,WNW,293,12.0,18.0,54,0.00,,,0.00,meteohub,2013-06-17 22:35:00,
2013-06-17 15:40:00,72.5,55.4,30.10,WNW,300,13.0,18.0,55,0.00,,,0.00,meteohub,2013-06-17 22:40:00,
2013-06-17 15:46:00,72.3,56.3,30.10,WSW,251,12.0,21.0,57,0.00,,,0.00,meteohub,2013-06-17 22:46:00,
2013-06-17 15:51:00,73.2,55.6,30.10,West,274,11.0,21.0,54,0.00,,,0.00,meteohub,2013-06-17 22:51:00,
2013-06-17 15:56:00,73.2,55.0,30.10,WNW,289,12.0,21.0,53,0.00,,,0.00,meteohub,2013-06-17 22:56:00,
2013-06-17 16:01:00,73.0,54.9,30.10,WNW,293,10.0,18.0,53,0.00,,,0.00,meteohub,2013-06-17 23:01:00,
2013-06-17 16:06:00,73.0,55.4,30.10,West,277,11.0,18.0,54,0.00,,,0.00,meteohub,2013-06-17 23:06:00,
2013-06-17 16:11:00,73.0,55.4,30.10,West,264,16.0,18.0,54,0.00,,,0.00,meteohub,2013-06-17 23:11:00,
2013-06-17 16:16:00,72.7,55.6,30.10,West,260,13.0,18.0,55,0.00,,,0.00,meteohub,2013-06-17 23:16:00,
2013-06-17 16:21:00,72.1,55.0,30.10,West,280,6.0,18.0,55,0.00,,,0.00,meteohub,2013-06-17 23:21:00,
2013-06-17 16:26:00,72.1,55.6,30.09,West,265,9.0,18.0,56,0.00,,,0.00,meteohub,2013-06-17 23:26:00,
2013-06-17 16:31:00,72.1,55.6,30.09,West,280,8.0,15.0,56,0.00,,,0.00,meteohub,2013-06-17 23:31:00,
2013-06-17 16:36:00,72.3,55.2,30.09,West,279,10.0,17.0,55,0.00,,,0.00,meteohub,2013-06-17 23:36:00,
2013-06-17 16:41:00,72.3,55.2,30.09,West,272,9.0,17.0,55,0.00,,,0.00,meteohub,2013-06-17 23:41:00,
2013-06-17 16:46:00,72.3,55.2,30.09,WNW,299,5.0,17.0,55,0.00,,,0.00,meteohub,2013-06-17 23:46:00,
2013-06-17 16:51:00,72.3,55.2,30.09,NW,308,11.0,16.0,55,0.00,,,0.00,meteohub,2013-06-17 23:51:00,
2013-06-17 16:56:00,71.6,55.0,30.09,WSW,257,9.0,16.0,56,0.00,,,0.00,meteohub,2013-06-17 23:56:00,
2013-06-17 17:01:00,71.8,55.2,30.09,WSW,252,13.0,17.0,56,0.00,,,0.00,meteohub,2013-06-18 00:01:00,
2013-06-17 17:06:00,71.4,55.9,30.09,West,275,9.0,17.0,58,0.00,,,0.00,meteohub,2013-06-18 00:06:00,
2013-06-17 17:11:00,72.0,55.9,30.09,West,264,10.0,17.0,57,0.00,,,0.00,meteohub,2013-06-18 00:11:00,
2013-06-17 17:16:00,71.1,55.0,30.09,WNW,286,8.0,17.0,57,0.00,,,0.00,meteohub,2013-06-18 00:16:00,
2013-06-17 17:21:00,71.2,55.8,30.09,West,266,10.0,17.0,58,0.00,,,0.00,meteohub,2013-06-18 00:21:00,
2013-06-17 17:26:00,70.9,55.4,30.09,West,266,14.0,19.0,58,0.00,,,0.00,meteohub,2013-06-18 00:26:00,
2013-06-17 17:31:00,70.2,55.6,30.08,WNW,291,9.0,19.0,60,0.00,,,0.00,meteohub,2013-06-18 00:31:00,
2013-06-17 17:36:00,70.3,55.8,30.08,West,266,13.0,19.0,60,0.00,,,0.00,meteohub,2013-06-18 00:36:00,
2013-06-17 17:41:00,70.5,55.6,30.08,West,276,11.0,19.0,59,0.00,,,0.00,meteohub,2013-06-18 00:41:00,
2013-06-17 17:46:00,70.9,56.3,30.08,WNW,293,9.0,17.0,60,0.00,,,0.00,meteohub,2013-06-18 00:46:00,
2013-06-17 17:51:00,70.3,55.4,30.08,WNW,290,15.0,17.0,59,0.00,,,0.00,meteohub,2013-06-18 00:51:00,
2013-06-17 17:56:00,70.0,55.4,30.08,WNW,287,11.0,18.0,60,0.00,,,0.00,meteohub,2013-06-18 00:56:00,
2013-06-17 18:01:00,69.3,55.2,30.08,West,280,11.0,18.0,61,0.00,,,0.00,meteohub,2013-06-18 01:01:00,
2013-06-17 18:06:00,69.1,55.6,30.07,WNW,285,13.0,20.0,62,0.00,,,0.00,meteohub,2013-06-18 01:06:00,
2013-06-17 18:11:00,69.3,55.8,30.07,NW,305,12.0,20.0,62,0.00,,,0.00,meteohub,2013-06-18 01:11:00,
2013-06-17 18:16:00,69.1,55.6,30.07,WNW,283,12.0,19.0,62,0.00,,,0.00,meteohub,2013-06-18 01:16:00,
2013-06-17 18:21:00,68.7,55.2,30.07,WNW,293,17.0,18.0,62,0.00,,,0.00,meteohub,2013-06-18 01:21:00,
2013-06-17 18:26:00,68.2,54.7,30.07,WNW,285,11.0,20.0,62,0.00,,,0.00,meteohub,2013-06-18 01:26:00,
2013-06-17 18:31:00,68.2,55.0,30.07,WNW,294,17.0,20.0,63,0.00,,,0.00,meteohub,2013-06-18 01:31:00,
2013-06-17 18:36:00,68.2,55.0,30.07,WNW,287,14.0,19.0,63,0.00,,,0.00,meteohub,2013-06-18 01:36:00,
2013-06-17 18:42:00,68.2,55.0,30.07,WNW,283,16.0,18.0,63,0.00,,,0.00,meteohub,2013-06-18 01:42:00,
2013-06-17 18:47:00,67.8,55.2,30.07,West,269,13.0,18.0,64,0.00,,,0.00,meteohub,2013-06-18 01:47:00,
2013-06-17 18:52:00,68.5,55.4,30.07,West,270,10.0,18.0,63,0.00,,,0.00,meteohub,2013-06-18 01:52:00,
2013-06-17 18:57:00,68.0,54.5,30.07,WNW,291,12.0,18.0,62,0.00,,,0.00,meteohub,2013-06-18 01:57:00,
2013-06-17 19:02:00,67.8,54.7,30.06,West,267,10.0,18.0,63,0.00,,,0.00,meteohub,2013-06-18 02:02:00,
2013-06-17 19:07:00,67.8,54.3,30.07,West,275,10.0,18.0,62,0.00,,,0.00,meteohub,2013-06-18 02:07:00,
2013-06-17 19:12:00,67.5,54.9,30.07,WNW,302,7.0,17.0,64,0.00,,,0.00,meteohub,2013-06-18 02:12:00,
2013-06-17 19:17:00,67.3,55.0,30.07,WNW,291,6.0,17.0,65,0.00,,,0.00,meteohub,2013-06-18 02:17:00,
2013-06-17 19:22:00,66.7,54.7,30.07,WSW,249,8.0,15.0,65,0.00,,,0.00,meteohub,2013-06-18 02:22:00,
2013-06-17 19:27:00,66.7,54.7,30.07,West,273,8.0,15.0,65,0.00,,,0.00,meteohub,2013-06-18 02:27:00,
2013-06-17 19:32:00,66.4,53.8,30.06,WSW,256,9.0,15.0,64,0.00,,,0.00,meteohub,2013-06-18 02:32:00,
2013-06-17 19:37:00,66.4,54.3,30.07,West,272,9.0,17.0,65,0.00,,,0.00,meteohub,2013-06-18 02:37:00,
2013-06-17 19:42:00,66.0,54.3,30.06,WNW,290,12.0,17.0,66,0.00,,,0.00,meteohub,2013-06-18 02:42:00,
2013-06-17 19:47:00,65.1,54.3,30.07,West,278,7.0,17.0,68,0.00,,,0.00,meteohub,2013-06-18 02:47:00,
2013-06-17 19:52:00,64.6,54.1,30.07,WSW,254,9.0,16.0,69,0.00,,,0.00,meteohub,2013-06-18 02:52:00,
2013-06-17 19:57:00,64.0,54.5,30.07,West,266,9.0,15.0,71,0.00,,,0.00,meteohub,2013-06-18 02:57:00,
2013-06-17 20:02:00,63.5,54.0,30.06,West,280,14.0,14.0,71,0.00,,,0.00,meteohub,2013-06-18 03:02:00,
2013-06-17 20:07:00,63.1,54.0,30.06,WSW,243,10.0,16.0,72,0.00,,,0.00,meteohub,2013-06-18 03:07:00,
2013-06-17 20:12:00,63.1,54.0,30.06,West,268,15.0,22.0,72,0.00,,,0.00,meteohub,2013-06-18 03:12:00,
2013-06-17 20:17:00,63.0,53.8,30.06,West,264,14.0,22.0,72,0.00,,,0.00,meteohub,2013-06-18 03:17:00,
2013-06-17 20:22:00,62.8,53.6,30.06,WSW,258,11.0,22.0,72,0.00,,,0.00,meteohub,2013-06-18 03:22:00,
2013-06-17 20:27:00,62.4,53.6,30.06,WSW,242,8.0,22.0,73,0.00,,,0.00,meteohub,2013-06-18 03:27:00,
2013-06-17 20:32:00,62.4,53.6,30.06,WNW,299,8.0,18.0,73,0.00,,,0.00,meteohub,2013-06-18 03:32:00,
2013-06-17 20:37:00,62.4,53.6,30.07,North,11,5.0,18.0,73,0.00,,,0.00,meteohub,2013-06-18 03:37:00,
2013-06-17 20:42:00,62.4,53.2,30.06,West,281,7.0,16.0,72,0.00,,,0.00,meteohub,2013-06-18 03:42:00,
2013-06-17 20:47:00,62.4,53.6,30.07,West,271,7.0,14.0,73,0.00,,,0.00,meteohub,2013-06-18 03:47:00,
2013-06-17 20:52:00,62.2,53.8,30.07,West,272,5.0,16.0,74,0.00,,,0.00,meteohub,2013-06-18 03:52:00,
2013-06-17 20:57:00,62.2,53.8,30.07,West,271,0.0,16.0,74,0.00,,,0.00,meteohub,2013-06-18 03:57:00,
2013-06-17 21:01:00,62.2,53.8,30.07,WSW,249,4.0,16.0,74,0.00,,,0.00,meteohub,2013-06-18 04:01:00,
2013-06-17 21:02:00,62.2,53.8,30.07,SW,215,6.0,16.0,74,0.00,,,0.00,meteohub,2013-06-18 04:02:00,
2013-06-17 21:04:00,62.2,53.8,30.07,WSW,242,0.0,16.0,74,0.00,,,0.00,meteohub,2013-06-18 04:04:00,
2013-06-17 21:07:00,62.1,53.6,30.07,WSW,242,0.0,9.0,74,0.00,,,0.00,meteohub,2013-06-18 04:07:00,
2013-06-17 21:12:00,62.1,54.0,30.07,NW,307,1.0,7.0,75,0.00,,,0.00,meteohub,2013-06-18 04:12:00,
2013-06-17 21:17:00,62.1,54.0,30.07,WNW,291,1.0,7.0,75,0.00,,,0.00,meteohub,2013-06-18 04:17:00,
2013-06-17 21:22:00,62.1,54.0,30.07,NNW,335,8.0,8.0,75,0.00,,,0.00,meteohub,2013-06-18 04:22:00,
2013-06-17 21:28:00,62.2,54.1,30.07,WNW,296,3.0,10.0,75,0.00,,,0.00,meteohub,2013-06-18 04:28:00,
2013-06-17 21:33:00,62.2,54.1,30.08,SSE,161,3.0,10.0,75,0.00,,,0.00,meteohub,2013-06-18 04:33:00,
2013-06-17 21:38:00,61.9,54.7,30.08,SSE,156,3.0,10.0,77,0.00,,,0.00,meteohub,2013-06-18 04:38:00,
2013-06-17 21:43:00,61.5,54.3,30.08,SSE,156,0.0,7.0,77,0.00,,,0.00,meteohub,2013-06-18 04:43:00,
2013-06-17 21:48:00,61.5,54.3,30.08,WSW,258,3.0,7.0,77,0.00,,,0.00,meteohub,2013-06-18 04:48:00,
2013-06-17 21:53:00,61.5,54.3,30.08,WSW,258,0.0,8.0,77,0.00,,,0.00,meteohub,2013-06-18 04:53:00,
2013-06-17 21:58:00,61.3,54.5,30.08,SSE,149,4.0,8.0,78,0.00,,,0.00,meteohub,2013-06-18 04:58:00,
2013-06-17 22:03:00,60.6,54.5,30.08,SE,135,3.0,5.0,80,0.00,,,0.00,meteohub,2013-06-18 05:03:00,
2013-06-17 22:08:00,60.4,54.5,30.08,SE,133,0.0,5.0,81,0.00,,,0.00,meteohub,2013-06-18 05:08:00,
2013-06-17 22:13:00,60.3,54.3,30.09,SE,133,0.0,5.0,81,0.00,,,0.00,meteohub,2013-06-18 05:13:00,
2013-06-17 22:18:00,60.1,54.5,30.09,SE,133,1.0,5.0,82,0.00,,,0.00,meteohub,2013-06-18 05:18:00,
2013-06-17 22:23:00,59.9,54.3,30.09,SE,133,1.0,3.0,82,0.00,,,0.00,meteohub,2013-06-18 05:23:00,
2013-06-17 22:28:00,59.5,54.0,30.09,SE,140,4.0,4.0,82,0.00,,,0.00,meteohub,2013-06-18 05:28:00,
2013-06-17 22:33:00,59.4,53.8,30.09,SSE,148,3.0,6.0,82,0.00,,,0.00,meteohub,2013-06-18 05:33:00,
2013-06-17 22:38:00,59.2,54.0,30.09,SSE,149,0.0,6.0,83,0.00,,,0.00,meteohub,2013-06-18 05:38:00,
2013-06-17 22:43:00,59.2,54.0,30.09,SSE,149,0.0,6.0,83,0.00,,,0.00,meteohub,2013-06-18 05:43:00,
2013-06-17 22:48:00,58.8,54.0,30.09,SSE,148,2.0,6.0,84,0.00,,,0.00,meteohub,2013-06-18 05:48:00,
2013-06-17 22:53:00,58.8,54.0,30.08,SSE,149,1.0,4.0,84,0.00,,,0.00,meteohub,2013-06-18 05:53:00,
2013-06-17 22:58:00,58.6,53.8,30.08,SSE,150,0.0,4.0,84,0.00,,,0.00,meteohub,2013-06-18 05:58:00,
2013-06-17 23:03:00,58.6,53.8,30.08,SSE,150,1.0,4.0,84,0.00,,,0.00,meteohub,2013-06-18 06:03:00,
2013-06-17 23:08:00,58.5,53.6,30.08,SSE,149,2.0,4.0,84,0.00,,,0.00,meteohub,2013-06-18 06:08:00,
2013-06-17 23:13:00,58.5,54.0,30.08,SSE,150,1.0,4.0,85,0.00,,,0.00,meteohub,2013-06-18 06:13:00,
2013-06-17 23:18:00,58.5,54.0,30.08,South,179,4.0,4.0,85,0.00,,,0.00,meteohub,2013-06-18 06:18:00,
2013-06-17 23:23:00,58.3,53.8,30.08,South,177,3.0,6.0,85,0.00,,,0.00,meteohub,2013-06-18 06:23:00,
2013-06-17 23:28:00,57.9,53.4,30.08,SSW,204,4.0,6.0,85,0.00,,,0.00,meteohub,2013-06-18 06:28:00,
2013-06-17 23:33:00,57.7,53.6,30.08,SW,229,5.0,6.0,86,0.00,,,0.00,meteohub,2013-06-18 06:33:00,
2013-06-17 23:38:00,57.7,53.6,30.08,SW,230,4.0,6.0,86,0.00,,,0.00,meteohub,2013-06-18 06:38:00,
2013-06-17 23:43:00,57.7,53.6,30.08,SW,225,2.0,6.0,86,0.00,,,0.00,meteohub,2013-06-18 06:43:00,
2013-06-17 23:48:00,57.7,53.6,30.08,SW,216,0.0,6.0,86,0.00,,,0.00,meteohub,2013-06-18 06:48:00,
2013-06-17 23:53:00,57.6,53.4,30.08,SW,216,0.0,5.0,86,0.00,,,0.00,meteohub,2013-06-18 06:53:00,
2013-06-17 23:58:00,57.6,53.8,30.08,SSE,166,2.0,4.0,87,0.00,,,0.00,meteohub,2013-06-18 06:58:00,